Location: Waco, TX
(31.5480°N, 97.1670°W)
Time: 03:04:09
(UTC-05:00)

ISS - Pass Details

Date: 16 September 2017
Orbit: 401 x 407 km, 51.6° (Epoch: 22 September)

Event Time Altitude Azimuth Distance (km) Brightness Sun altitude
Rises 00:15:38 0° 234° (SW) 2,308 - -52.3°
Reaches altitude 10° 00:17:44 10° 240° (WSW) 1,453 - -52.5°
Maximum altitude 00:20:55 50° 317° (NW) 524 - -52.8°
Drops below altitude 10° 00:24:07 10° 34° (NE) 1,463 - -53.1°
Sets 00:26:15 0° 40° (NE) 2,327 - -53.3°
